CSS (WENTIAN)

Last updated on Thu Sep 10 2026 00:02:05 GMT+0000 (Coordinated Universal Time)

1 53239U 22085A 26252.20644547 .00018630 00000+0 22982-3 0 9991 2 53239 41.4683 171.9230 0002510 266.7428 93.3123 15.59731104288236
UTC large
Height (km)
Speed (km/s)
/
Latitude / Longitude
Inclination (degrees)
Orbital Period (minutes)
Azimuth
Elevation
Range (km)
Doppler Factor

Next 0 passes for location: London (51.5072 / 0.1276)

No passes found over London.
CSS (WENTIAN)